CDT,Max TemperatureF,Mean TemperatureF,Min TemperatureF,Max Dew PointF,MeanDew PointF,Min DewpointF,Max Humidity, Mean Humidity, Min Humidity, Max Sea Level PressureIn, Mean Sea Level PressureIn, Min Sea Level PressureIn, Max VisibilityMiles, Mean VisibilityMiles, Min VisibilityMiles, Max Wind SpeedMPH, Mean Wind SpeedMPH, Max Gust SpeedMPH,PrecipitationIn, CloudCover, Events, WindDirDegrees
2012-10-1,67,58,50,50,47,43,88,68,42,29.90,29.85,29.81,10,10,7,15,6,21,0.00,0,,24
2012-10-2,74,60,45,56,49,43,93,70,39,29.90,29.85,29.81,10,10,10,15,6,20,0.01,2,Rain,350
2012-10-3,73,66,59,58,54,46,86,68,37,30.06,29.98,29.90,10,10,10,9,2,,0.01,6,Rain,180
2012-10-4,81,66,49,58,54,47,94,72,44,30.25,30.12,30.06,10,10,4,21,9,25,0.11,2,Rain-Thunderstorm,235
2012-10-5,50,44,38,48,41,35,95,83,62,30.26,30.21,30.17,10,9,3,12,6,17,0.13,7,Rain-Thunderstorm,314
2012-10-6,50,43,36,37,33,31,91,71,49,30.26,30.23,30.19,10,10,10,15,7,20,0.17,1,,289
2012-10-7,53,44,35,37,32,27,91,65,36,30.28,30.22,30.18,10,10,10,12,5,18,0.13,2,,274
2012-10-8,62,50,38,36,33,29,76,54,32,30.20,30.13,30.05,10,10,10,15,7,21,0.02,0,,185
2012-10-9,69,56,44,46,42,36,91,62,37,30.05,29.98,29.89,10,10,3,22,9,32,0.00,2,Rain,206
2012-10-10,58,47,36,44,35,28,95,65,34,30.27,30.18,30.04,10,10,10,17,7,24,0.01,1,,262
2012-10-11,69,56,42,47,38,32,76,56,35,30.22,30.18,30.11,10,10,10,15,7,20,0.01,0,,190
2012-10-12,64,55,46,47,41,35,80,62,45,30.40,30.32,30.21,10,10,10,21,9,25,0.00,1,,65
2012-10-13,75,64,53,67,60,48,100,86,68,30.22,29.99,29.77,10,7,2,20,9,25,0.06,4,Rain-Thunderstorm,176
2012-10-14,74,65,55,66,58,48,97,82,62,29.93,29.73,29.60,10,10,4,28,15,37,0.10,6,Rain,228
2012-10-15,68,56,46,49,46,43,92,71,41,30.02,29.97,29.93,10,10,10,9,6,,0.01,0,,272
2012-10-16,80,64,49,55,49,44,84,59,39,29.95,29.74,29.57,10,10,10,18,9,25,0.00,0,,162
2012-10-17,66,60,53,62,54,47,96,79,52,29.62,29.51,29.35,10,8,2,20,11,36,0.01,3,Rain-Thunderstorm,198
2012-10-18,57,52,47,48,39,33,87,62,40,29.58,29.54,29.51,10,10,7,28,14,43,0.00,3,Rain,232
2012-10-19,55,50,46,48,45,43,93,83,67,29.77,29.62,29.48,10,9,4,18,13,23,0.00,8,,259
2012-10-20,61,54,47,47,46,44,95,82,57,29.92,29.86,29.77,10,10,4,14,7,22,0.01,5,,232
2012-10-21,77,60,43,62,53,42,96,76,53,29.96,29.93,29.89,10,10,5,12,7,,0.00,0,,128
2012-10-22,77,70,64,66,63,59,96,79,67,29.95,29.91,29.88,10,10,4,15,9,21,0.01,3,Rain-Thunderstorm,168
2012-10-23,76,70,66,65,64,62,90,80,69,29.95,29.90,29.86,10,10,10,17,8,24,0.02,2,Rain-Thunderstorm,175
2012-10-24,83,74,65,66,63,60,82,70,56,29.96,29.90,29.85,10,10,10,17,12,22,0.02,1,,173
2012-10-25,79,62,44,65,56,36,95,77,59,30.20,29.89,29.75,10,10,5,25,15,36,0.01,4,Rain-Thunderstorm,215
2012-10-26,50,44,37,36,32,31,81,65,49,30.37,30.31,30.20,10,10,10,23,14,30,0.01,2,,333
2012-10-27,49,40,32,32,31,28,88,70,50,30.36,30.30,30.26,10,10,10,14,9,16,0.00,0,,349
2012-10-28,50,40,31,36,32,28,88,74,58,30.30,30.27,30.25,10,10,10,10,6,,0.01,2,,347
2012-10-29,54,42,30,37,30,27,91,68,35,30.34,30.27,30.14,10,10,7,12,6,16,0.00,0,,342
2012-10-30,57,45,33,32,27,21,81,54,25,30.14,29.98,29.88,10,10,10,23,10,31,0.01,0,,311
2012-10-31,54,43,32,30,26,21,85,59,27,29.97,29.95,29.91,10,10,10,16,9,23,0.00,0,,295